Date String (YYYY-MM-DD hh:mm:ss) UTC,Instrument flags,absolute air pressure of the measurement (hPa),sample flow rate (lpm),inlet stack bypass flow (lpm),air temperature of the measurement (°C),ambient temperature measured by the external sensor (°C),aerosol sample conditioner tube jacket temperature (°C),OPC LED temperature (°C),internal box temperature (°C),relative humidity of the measurement (%),span deviation,mass concentration of particles derived from Lorenz-Mie calculation of OPC scattering (μg/m³),mass concentration of particles derived from Lorenz-Mie calculation of OPC scattering (μg/m³),mass concentration of particles derived from Lorenz-Mie calculation of OPC scattering (μg/m³)
DateTimeUTC,F1_M11,P_M11,Q1_M11,Q2_M11,T1_M11,T2_M11,T3_M11,T4_M11,T5_M11,U1_M11,ZSPAN_M11,X0_M11,X2_M11,X1_M11
2024-03-25 09:00:00,SystemResetWarning,0816.2,5.01,000.00,018.6,017.8,000.0,027.2,020.2,16.0,0000.0,0007.61,0003.69,0003.53
2024-03-25 09:01:00,SystemResetWarning,0816.2,4.99,000.00,018.5,017.5,000.0,027.2,020.1,16.1,0000.0,0007.54,0003.69,0003.52
2024-03-25 09:02:00,SystemResetWarning,0816.2,5.00,000.00,018.4,017.3,000.0,027.2,020.0,16.1,0000.0,0007.58,0003.71,0003.52
2024-03-25 09:03:00,SystemResetWarning,0816.3,5.00,000.00,018.4,017.1,000.0,027.2,020.0,16.2,0000.0,0007.96,0003.71,0003.52
2024-03-25 09:04:00,SystemResetWarning,0816.3,5.00,000.00,018.3,017.0,000.0,027.2,020.0,16.2,0000.0,0007.75,0003.72,0003.52
2024-03-25 09:05:00,SystemResetWarning,0816.2,5.01,000.00,018.3,016.9,000.0,027.2,020.0,16.2,0000.0,0007.55,0003.72,0003.52
2024-03-25 09:06:00,SystemResetWarning,0816.2,5.00,000.00,018.3,016.8,000.0,027.2,020.0,16.2,0000.0,0007.53,0003.72,0003.50
2024-03-25 09:07:00,SystemResetWarning,0816.2,5.00,000.00,018.3,017.2,000.0,027.3,020.2,16.1,0000.0,0007.54,0003.72,0003.50
2024-03-25 09:08:00,SystemResetWarning,0816.2,5.00,000.00,018.5,018.3,000.0,027.3,020.8,15.9,0000.0,0007.57,0003.72,0003.49
2024-03-25 09:09:00,SystemResetWarning,0816.3,4.99,000.00,018.7,018.9,000.0,027.3,021.1,15.7,0000.0,0007.11,0003.72,0003.48
2024-03-25 09:10:00,SystemResetWarning,0816.3,4.99,000.00,018.8,018.6,000.0,027.3,020.8,15.6,0000.0,0006.23,0003.71,0003.48
2024-03-25 09:11:00,SystemResetWarning,0816.2,5.00,000.00,018.7,018.3,000.0,027.3,020.6,15.6,0000.0,0006.33,0003.71,0003.48
2024-03-25 09:12:00,SystemResetWarning,0816.2,5.01,000.00,018.6,018.0,000.0,027.3,020.4,15.7,0000.0,0007.42,0003.71,0003.48
2024-03-25 09:13:00,SystemResetWarning,0816.2,5.00,000.00,018.6,017.8,000.0,027.2,020.2,15.7,0000.0,0007.54,0003.73,0003.47
2024-03-25 09:14:00,SystemResetWarning,0816.3,5.00,000.00,018.5,017.5,000.0,027.2,020.1,15.7,0000.0,0007.01,0003.73,0003.47
2024-03-25 09:15:00,SystemResetWarning,0816.2,5.00,000.00,018.4,017.3,000.0,027.2,020.0,15.8,0000.0,0007.06,0003.70,0003.47
2024-03-25 09:16:00,SystemResetWarning,0816.3,5.00,000.00,018.4,017.1,000.0,027.2,020.0,15.8,0000.0,0007.18,0003.70,0003.46
2024-03-25 09:17:00,SystemResetWarning,0816.3,5.00,000.00,018.3,017.0,000.0,027.3,020.0,15.8,0000.0,0007.30,0003.72,0003.46
2024-03-25 09:18:00,SystemResetWarning,0816.3,5.00,000.00,018.3,017.1,000.0,027.3,020.1,15.8,0000.0,0007.31,0003.73,0003.46
2024-03-25 09:19:00,SystemResetWarning,0816.2,5.01,000.00,018.5,018.1,000.0,027.4,020.7,15.6,0000.0,0008.21,0003.75,0003.45
2024-03-25 09:20:00,SystemResetWarning,0816.3,4.99,000.00,018.8,019.1,000.0,027.4,021.2,15.4,0000.0,0008.86,0003.74,0003.44
2024-03-25 09:21:00,SystemResetWarning,0816.4,4.99,000.00,018.9,019.3,000.0,027.4,021.3,15.2,0000.0,0008.81,0003.71,0003.42
2024-03-25 09:22:00,SystemResetWarning,0816.3,5.01,000.00,018.9,018.9,000.0,027.4,021.0,15.1,0000.0,0008.75,0003.69,0003.41
2024-03-25 09:23:00,SystemResetWarning,0816.2,5.00,000.00,018.8,018.5,000.0,027.4,020.7,15.2,0000.0,0008.02,0003.68,0003.41
2024-03-25 09:24:00,SystemResetWarning,0816.3,5.00,000.00,018.8,018.1,000.0,027.3,020.5,15.2,0000.0,0007.84,0003.66,0003.41
2024-03-25 09:25:00,SystemResetWarning,0816.3,5.01,000.00,018.7,017.7,000.0,027.3,020.3,15.3,0000.0,0007.74,0003.67,0003.42
2024-03-25 09:26:00,SystemResetWarning,0816.2,4.99,000.00,018.6,017.5,000.0,027.3,020.2,15.3,0000.0,0008.56,0003.69,0003.43
2024-03-25 09:27:00,SystemResetWarning,0816.3,5.00,000.00,018.5,017.3,000.0,027.3,020.0,15.4,0000.0,0008.59,0003.73,0003.46
2024-03-25 09:28:00,SystemResetWarning,0816.3,5.00,000.00,018.4,017.1,000.0,027.3,020.0,15.4,0000.0,0008.53,0003.75,0003.51
2024-03-25 09:29:00,SystemResetWarning,0816.3,5.01,000.00,018.4,017.0,000.0,027.3,020.0,15.4,0000.0,0008.57,0003.79,0003.55
2024-03-25 09:30:00,SystemResetWarning,0816.3,5.01,000.00,018.3,016.9,000.0,027.3,020.1,15.5,0000.0,0007.66,0003.82,0003.59
2024-03-25 09:31:00,SystemResetWarning,0816.3,5.00,000.00,018.4,017.8,000.0,027.4,020.5,15.4,0000.0,0007.00,0003.84,0003.64
2024-03-25 09:32:00,SystemResetWarning,0816.4,5.00,000.00,018.7,018.8,000.0,027.5,021.1,15.2,0000.0,0007.22,0003.91,0003.69
2024-03-25 09:33:00,SystemResetWarning,0816.4,5.00,000.00,018.9,019.3,000.0,027.5,021.3,14.9,0000.0,0007.31,0003.95,0003.73
2024-03-25 09:34:00,SystemResetWarning,0816.3,4.99,000.00,019.0,019.0,000.0,027.4,021.1,14.8,0000.0,0007.33,0003.97,0003.75
2024-03-25 09:35:00,SystemResetWarning,0816.3,5.00,000.00,018.9,018.6,000.0,027.4,020.8,14.9,0000.0,0007.34,0003.99,0003.78
2024-03-25 09:36:00,SystemResetWarning,0816.3,5.01,000.00,018.8,018.2,000.0,027.4,020.6,14.9,0000.0,0007.40,0004.00,0003.80
2024-03-25 09:37:00,SystemResetWarning,0816.3,5.00,000.00,018.8,017.9,000.0,027.4,020.4,14.9,0000.0,0005.92,0004.01,0003.82
2024-03-25 09:38:00,SystemResetWarning,0816.2,5.01,000.00,018.7,017.6,000.0,027.4,020.2,15.0,0000.0,0005.79,0003.98,0003.82
2024-03-25 09:39:00,SystemResetWarning,0816.3,5.00,000.00,018.6,017.4,000.0,027.3,020.1,15.0,0000.0,0005.75,0003.97,0003.83
2024-03-25 09:40:00,SystemResetWarning,0816.3,5.00,000.00,018.5,017.2,000.0,027.3,020.0,15.1,0000.0,0005.63,0003.94,0003.82
2024-03-25 09:41:00,SystemResetWarning,0816.3,5.00,000.00,018.4,017.0,000.0,027.3,020.0,15.2,0000.0,0005.48,0003.92,0003.81
2024-03-25 09:42:00,SystemResetWarning,0816.3,5.00,000.00,018.4,016.9,000.0,027.3,020.0,15.2,0000.0,0005.47,0003.93,0003.81
2024-03-25 09:43:00,SystemResetWarning,0816.4,5.00,000.00,018.3,017.0,000.0,027.4,020.1,15.2,0000.0,0005.35,0003.92,0003.80
2024-03-25 09:44:00,SystemResetWarning,0816.4,5.01,000.00,018.5,018.0,000.0,027.4,020.6,15.1,0000.0,0005.36,0003.91,0003.80
2024-03-25 09:45:00,SystemResetWarning,0816.5,4.99,000.00,018.8,019.0,000.0,027.5,021.2,14.8,0000.0,0005.46,0003.91,0003.79
2024-03-25 09:46:00,SystemResetWarning,0816.5,4.98,000.00,019.0,019.3,000.0,027.5,021.3,14.6,0000.0,0005.47,0003.92,0003.79
2024-03-25 09:47:00,SystemResetWarning,0816.4,5.00,000.00,018.9,018.9,000.0,027.4,020.9,14.6,0000.0,0005.40,0003.92,0003.78
2024-03-25 09:48:00,SystemResetWarning,0816.4,5.01,000.00,018.9,018.4,000.0,027.4,020.7,14.7,0000.0,0005.08,0003.89,0003.76
2024-03-25 09:49:00,SystemResetWarning,0816.4,5.00,000.00,018.8,018.0,000.0,027.4,020.4,14.7,0000.0,0005.26,0003.89,0003.75
2024-03-25 09:50:00,SystemResetWarning,0816.4,4.99,000.00,018.7,017.7,000.0,027.4,020.2,14.8,0000.0,0005.40,0003.89,0003.73
2024-03-25 09:51:00,SystemResetWarning,0816.4,5.00,000.00,018.6,017.4,000.0,027.3,020.1,14.9,0000.0,0005.64,0003.88,0003.70
2024-03-25 09:52:00,SystemResetWarning,0816.4,5.01,000.00,018.5,017.2,000.0,027.3,020.0,15.0,0000.0,0007.04,0003.86,0003.69
2024-03-25 09:53:00,SystemResetWarning,0816.4,4.99,000.00,018.4,017.0,000.0,027.3,020.0,15.0,0000.0,0007.33,0003.84,0003.67
2024-03-25 09:54:00,SystemResetWarning,0816.4,4.99,000.00,018.4,016.9,000.0,027.3,020.0,15.0,0000.0,0007.36,0003.84,0003.66
2024-03-25 09:55:00,SystemResetWarning,0816.4,4.99,000.00,018.3,016.9,000.0,027.3,020.0,15.1,0000.0,0007.34,0003.82,0003.65
2024-03-25 09:56:00,SystemResetWarning,0816.4,5.01,000.00,018.4,017.7,000.0,027.4,020.4,15.0,0000.0,0007.24,0003.80,0003.64
2024-03-25 09:57:00,SystemResetWarning,0816.5,5.01,000.00,018.7,018.8,000.0,027.5,021.0,14.8,0000.0,0007.24,0003.79,0003.62
2024-03-25 09:58:00,SystemResetWarning,0816.5,4.99,000.00,018.9,019.3,000.0,027.5,021.3,14.6,0000.0,0007.27,0003.79,0003.61
2024-03-25 09:59:00,SystemResetWarning,0816.5,4.99,000.00,019.0,019.0,000.0,027.4,021.1,14.6,0000.0,0007.28,0003.79,0003.60
